Location: ??????
(41.3747°N, 22.5491°E)
Time: 08:29:43
(UTC+00:00)

Cosmos 1680 Rocket - Pass Details

Date: 01 December 2020
Orbit: 760 x 781 km, 74.1° (Epoch: 17 January)

Event Time Altitude Azimuth Distance (km) Brightness Sun altitude
Rises 17:42:07 0° 216° (SW) 3,229 7.3 -29.6°
Reaches altitude 10° 17:44:35 10° 223° (SW) 2,310 6.5 -30.0°
Maximum altitude 17:49:35 44° 295° (WNW) 1,069 4.5 -31.0°
Enters shadow 17:50:24 41° 320° (NW) 1,122 4.5 -31.1°
